This demonstration page uses our WeatherBlox Daily Observations layout. Learn more.

Left ArrowRight Arrow

Hourly Observations for February 19, 2020

Temp ( °F °C ) Dew Point ( °F °C ) Humidity (%) Winds ( mph kmh ) Pressure ( in mb ) Visibility ( mi km ) Precip ( " mm )
12:15 am 00:15 Cloudy 52 11 45 7 77 77 N 9 15 30.1 1019 10 16.0934 0 0
12:35 am 00:35 Cloudy 50 10 45 7 82 82 N 10 17 30.12 1020 10 16.0934 0 0
12:55 am 00:55 Cloudy 50 10 45 7 82 82 N 8 13 30.12 1020 10 16.0934 0 0
1:15 am 01:15 Cloudy 50 10 43 6 76 76 N 12 19 30.12 1020 10 16.0934 0 0
1:35 am 01:35 Cloudy 48 9 41 5 76 76 N 12 19 30.13 1020 10 16.0934 0 0
1:55 am 01:55 Cloudy 48 9 41 5 76 76 NNW 10 17 30.13 1020 10 16.0934 0 0
2:15 am 02:15 Cloudy 46 8 37 3 71 71 NNW 13 20 30.14 1021 10 16.0934 0 0
2:35 am 02:35 Cloudy 46 8 36 2 66 66 NNW 12 19 30.16 1021 10 16.0934 0 0
2:55 am 02:55 Cloudy 46 8 34 1 62 62 NNW 12 19 30.16 1021 10 16.0934 0 0
3:15 am 03:15 Cloudy 46 8 34 1 62 62 NNW 15 24 30.17 1022 10 16.0934 0 0
3:35 am 03:35 Cloudy 46 8 34 1 62 62 N 9 15 30.18 1022 10 16.0934 0 0
3:55 am 03:55 Cloudy 45 7 36 2 71 71 N 12 19 30.19 1022 10 16.0934 0 0
4:15 am 04:15 Cloudy 45 7 34 1 66 66 N 14 22 30.2 1023 10 16.0934 0 0
4:35 am 04:35 Cloudy 45 7 34 1 66 66 NNW 15 24 30.21 1023 10 16.0934 0 0
4:55 am 04:55 Cloudy 45 7 32 0 61 61 N 10 17 30.22 1023 10 16.0934 0 0
5:15 am 05:15 Cloudy 43 6 32 0 66 66 N 9 15 30.23 1024 10 16.0934 0 0
5:35 am 05:35 Cloudy 43 6 32 0 66 66 N 9 15 30.24 1024 10 16.0934 0 0
5:55 am 05:55 Cloudy 43 6 32 0 66 66 NNW 10 17 30.26 1025 10 16.0934 0 0
6:15 am 06:15 Cloudy 43 6 32 0 66 66 NNW 12 19 30.27 1025 10 16.0934 0 0
6:35 am 06:35 Cloudy 41 5 30 -1 66 66 N 15 24 30.27 1025 10 16.0934 0 0
6:55 am 06:55 Cloudy 41 5 30 -1 66 66 N 16 26 30.28 1026 10 16.0934 0 0
7:15 am 07:15 Mostly Cloudy 39 4 28 -2 65 65 N 14 22 30.3 1026 10 16.0934 0 0
7:35 am 07:35 Mostly Cloudy 39 4 28 -2 65 65 N 10 17 30.32 1027 10 16.0934 0 0
7:55 am 07:55 Partly Cloudy 37 3 28 -2 70 70 N 9 15 30.34 1027 10 16.0934 0 0
8:15 am 08:15 Sunny 37 3 28 -2 70 70 N 5 7 30.35 1028 10 16.0934 0 0
8:35 am 08:35 Sunny 37 3 28 -2 70 70 NNW 3 6 30.37 1028 10 16.0934 0 0
8:55 am 08:55 undefined 37 3 28 -2 70 70 N 5 7 30.37 1028 N/A 0 0
9:15 am 09:15 Sunny 39 4 27 -3 61 61 NW 8 13 30.37 1028 10 16.0934 0 0
9:35 am 09:35 Sunny 41 5 27 -3 57 57 NNW 8 13 30.36 1028 10 16.0934 0 0
9:55 am 09:55 Sunny 41 5 27 -3 57 57 NW 10 17 30.37 1029 10 16.0934 0 0
10:15 am 10:15 Sunny 41 5 27 -3 57 57 NNW 6 9 30.37 1029 10 16.0934 0 0
10:35 am 10:35 Sunny 43 6 27 -3 53 53 NNW 8 13 30.37 1029 10 16.0934 0 0
10:55 am 10:55 Sunny 43 6 27 -3 53 53 NNW 7 11 30.38 1029 10 16.0934 0 0
11:15 am 11:15 Sunny 43 6 28 -2 57 57 WNW 12 19 30.37 1029 10 16.0934 0 0
11:35 am 11:35 Sunny 45 7 28 -2 53 53 WNW 9 15 30.38 1029 10 16.0934 0 0
11:55 am 11:55 Sunny 45 7 27 -3 49 49 NNW 9 15 30.38 1029 10 16.0934 0 0
12:15 pm 12:15 Sunny 45 7 25 -4 46 46 NNW 5 7 30.37 1028 10 16.0934 0 0
12:35 pm 12:35 Sunny 46 8 23 -5 40 40 NW 8 13 30.37 1028 10 16.0934 0 0
12:55 pm 12:55 Sunny 46 8 21 -6 37 37 NNW 12 19 30.36 1028 10 16.0934 0 0
1:15 pm 13:15 Sunny 48 9 23 -5 37 37 NW 10 17 30.35 1028 10 16.0934 0 0
1:35 pm 13:35 Sunny 48 9 25 -4 40 40 NNW 8 13 30.35 1028 10 16.0934 0 0
1:55 pm 13:55 Sunny 50 10 23 -5 35 35 NNW 17 28 30.34 1027 10 16.0934 0 0
2:15 pm 14:15 Sunny 50 10 21 -6 32 32 N 16 26 30.34 1027 10 16.0934 0 0
2:35 pm 14:35 Sunny 52 11 21 -6 30 30 NW 14 22 30.32 1027 10 16.0934 0 0
2:55 pm 14:55 Sunny 52 11 19 -7 28 28 NW 15 24 30.32 1027 10 16.0934 0 0
3:15 pm 15:15 Sunny 50 10 19 -7 30 30 NNW 14 22 30.34 1027 10 16.0934 0 0
3:35 pm 15:35 Sunny 50 10 19 -7 30 30 NNW 12 19 30.34 1027 10 16.0934 0 0
3:55 pm 15:55 Sunny 50 10 19 -7 30 30 NNW 16 26 30.34 1027 10 16.0934 0 0
4:35 pm 16:35 Sunny 48 9 18 -8 29 29 WNW 16 26 30.35 1028 10 16.0934 0 0
4:55 pm 16:55 Sunny 48 9 19 -7 32 32 NW 12 19 30.36 1028 10 16.0934 0 0
5:15 pm 17:15 Sunny 46 8 19 -7 34 34 NNW 10 17 30.37 1028 10 16.0934 0 0
5:35 pm 17:35 Sunny 46 8 19 -7 34 34 NW 9 15 30.37 1028 10 16.0934 0 0
5:55 pm 17:55 Clear 45 7 19 -7 37 37 NW 8 13 30.38 1029 10 16.0934 0 0
6:15 pm 18:15 Clear 43 6 19 -7 39 39 NW 6 9 30.39 1029 10 16.0934 0 0
6:35 pm 18:35 Clear 41 5 19 -7 42 42 NW 9 15 30.4 1030 10 16.0934 0 0
6:55 pm 18:55 Clear 41 5 19 -7 42 42 NW 8 13 30.41 1030 10 16.0934 0 0
7:15 pm 19:15 Clear 41 5 19 -7 42 42 NW 8 13 30.42 1030 10 16.0934 0 0
7:35 pm 19:35 Clear 37 3 19 -7 48 48 NW 9 15 30.44 1031 10 16.0934 0 0
7:55 pm 19:55 Clear 37 3 19 -7 48 48 WNW 5 7 30.44 1031 10 16.0934 0 0
8:15 pm 20:15 Clear 37 3 19 -7 48 48 NW 6 9 30.44 1031 10 16.0934 0 0
8:35 pm 20:35 Clear 37 3 19 -7 48 48 NW 6 9 30.45 1031 10 16.0934 0 0
8:55 pm 20:55 Clear 37 3 19 -7 48 48 NNW 3 6 30.45 1031 10 16.0934 0 0
9:15 pm 21:15 Clear 37 3 19 -7 48 48 Calm 30.46 1031 10 16.0934 0 0
9:35 pm 21:35 Clear 37 3 19 -7 48 48 Calm 30.46 1031 10 16.0934 0 0
9:55 pm 21:55 Clear 36 2 21 -6 56 56 Calm 30.45 1031 10 16.0934 0 0
10:35 pm 22:35 Clear 34 1 23 -5 65 65 Calm 30.46 1032 10 16.0934 0 0
10:55 pm 22:55 Clear 37 3 21 -6 52 52 N 3 6 30.46 1031 10 16.0934 0 0
11:15 pm 23:15 Clear 32 0 23 -5 69 69 NNW 5 7 30.47 1032 10 16.0934 0 0
11:35 pm 23:35 Clear 32 0 27 -3 80 80 WNW 3 6 30.47 1032 10 16.0934 0 0
11:55 pm 23:55 Clear 32 0 25 -4 75 75 Calm 30.46 1032 10 16.0934 0 0

Powered by AerisWeather